Погода в Лосиноборске

Погода в Лосиноборске : погода сейчас, прогноз погоды и архив. Всё, что Вы хотите узнать о погоде в Лосиноборске!

Хотите узнать прогноз погоды в Лосиноборске? Тогда Вам сюда: Погода в Лосиноборске

Поиск расширенной информации на нашем сайте:

Другие новости

Новости СМИ2

Главная страница сайта

Новости сайта

03.07.2017

Напоминаем, что на нашем специализированном сайте Метеоцентр.Азия вы можете получить высокодетализированные автоматические прогнозы погоды по пунктам России, СНГ и мира в авиационном формате (включающие направление и скорость ветра, видимость, явления погоды, количество и форму облачности, нижнюю и верхнюю границу облачности).


Погода в Лосиноборске - сегодня

Время (UTC), дата Ветер
(°,м/с) 
Видим.   Явления Облачность Т
(°С)
Тd
(°С)
f(%) Тe
(°С)
Pmin
(гПа)
dP
(гПа)
Po
(мм)
O2
(г/м3)
Тmin Tmax R s Состояние
почвы
15 17.10.17 тихо ()   н/о    10/10 1000 м 
[Sc]
-1.8 -3.6 87 -2  1029.1  0.5  759  308           
18 17.10.17 тихо ()   н/о    10/10 1000 м 
[Sc]
-1.9 -6.1 73 -2  1028.1  -1  758  308           
21 17.10.17 тихо ()   н/о    10/0 средняя 
[Ac trans]
-2.1 -6.4 72 -2  1027.2  -0.9  757  308           
00 18.10.17 110 (В) н/о    10/10 600 м 
[Sc]
-2.4 -6.4 74 -2  1026.7  -0.7  757  308  -3        замёрзшая 
03 18.10.17 160 (Ю) 20000 м    10/10 600 м 
[Sc]
-1.7 -5.8 74 -3  1025.7  -0.8  756  307           
06 18.10.17 110 (В) 20000 м    8/8 1000 м 
[Sc]
-0.8 -6.1 67 -2  1024.4  -1.2  755  306           
09 18.10.17 110 (В) 20000 м    9/0 верхняя 
[Ci fib]
+1 -7 55 1022.6  -1.7  754  303           
12 18.10.17 тихо ()   н/о    6/0 верхняя 
[Ci fib]
-2.8 -6.9 73 -3  1022  -0.8  753  307  +2         
15 18.10.17 тихо ()   н/о    ясно 
-4.4 -6.4 86 -4  1021.6  -0.5  753  309           
18 18.10.17 тихо ()   н/о    ясно 
-6.4 -7.6 91 -6  1020.6  -1.2  752  311           
21 18.10.17 090 (В) н/о    9/9 1000 м 
[Sc]
-3.7 -4.8 92 -3  1019.8  -0.4  752  308           
00 19.10.17 090 (В) н/о    10/10 1000 м 
[Sc]
-1.2 -3.2 86 -1  1019.5  -0.2  752  305  -6.4        замёрзшая 
03 19.10.17 140 (ЮВ) 20000 м    10/10 1000 м 
[Sc]
-0.6 -3.4 81 -1  1019.6  0.1  752  304           
06 19.10.17 110 (В) 20000 м    8/8 1000 м 
[Sc]
+0.6 -3 77 1019.1  -0.4  752  302           
09 19.10.17 110 (В) 20000 м    ясно 
+3 -3.5 62 +1  1018.1  -0.8  751  300           
12 19.10.17 тихо ()   н/о    3/0 верхняя 
[Ci fib]
+0.2 -4.2 72 1018.5  0.2  751  303    +3       
15 19.10.17 140 (ЮВ) н/о    10/0 средняя 
[As op]
+0.4 -1.6 86 +1  1018.8  0.3  751  302           
18 19.10.17 140 (ЮВ) н/о    10/10 1000 м 
[Sc]
+0.4 -0.2 96 +1  1018.1  -0.7  751  302           
21 19.10.17 140 (ЮВ) н/о    10/10 1000 м 
[Sc]
+0.8 +0.3 96 +1  1017.3  -0.8  750  301           
00 20.10.17 тихо ()   н/о    10/0 средняя 
[As op]
+1.5 +1 96 +2  1016.6  -0.5  750  300  +0.2        мокрая 
03 20.10.17 тихо ()   20000 м    10/10 600 м кучево-дожд. 
[Cb cap]
+2.2 +1.4 94 +2  1016.1  -0.5  749  299           
06 20.10.17 090 (В) 20000 м    9/3 1000 м верхняя 
[Sc|Ci fib]
+5.3 +2.3 81 +6  1014.6  -1.3  748  295           
09 20.10.17 140 (ЮВ) 20000 м    9/9 600 м кучево-дожд. 
[Cb cap]
+4.8 +2.1 83 +4  1013  -1.6  747  296           
12 20.10.17 090 (В) н/о    10/10 600 м кучево-дожд. 
[Cb cap]
+3.8 +2.6 92 +3  1012.3  -0.7  747  296    +5.3       
15 20.10.17 140 (ЮВ) н/о    10/10 1000 м 
[Sc]
+4.7 +3.7 93 +6  1010.4  -1.9  745  295           
Время (UTC), дата Ветер
(°,м/с) 
Видим.   Явления Облачность Т
(°С)
Тd
(°С)
f(%) Тe
(°С)
Pmin
(гПа)
dP
(гПа)
Po
(мм)
O2
(г/м3)
Тmin Tmax R s Состояние
почвы

Для получения пояснительной информации подведите курсор к названию столбца.

ПОГОДА в Лосиноборске - архив

Всё, что Вы хотите узнать о погоде в Лосиноборске - удобно и подробно!

Выберите нужную дату (начиная с 1 января 2015* года) и нажмите кнопку "Найти".
Будут отображены архивные сводки погоды по пункту Лосиноборск, начиная с указанной даты.


Отображать данные в формате CSV (для использования в таблицах Excel)


Внимание! Наш архив погоды предназначен исключительно для личного некоммерческого использования в познавательных целях. Если Вам необходимы официальные справки о состоянии погоды (для производственных, юридических, коммерческих и т.п. целей), обращайтесь в органы Росгидромета.

*Примечание: данная дата относится к архиву по метеостанциям СССР (Россия, СНГ, Балтия).
Архив по метеостанциям Зарубежной Европы и Азии (кроме Китая) хранится 10 дней, по другим регионам земного шара (Китай, Африка, Америка, Австралия, Океания) - 1 день.

Лосиноборск - район местоположения метеостанции


Название, широта, долгота, высота метеостанции:
Лосиноборск 58.4°ш. 89.4°д. 137 м над ур. моря [Российская Федерация]

Дополнительная информация

В oтличие oт бoльшинства пoгoдных сайтoв мы публикуем пoдрoбную метеoинфoрмацию в детальнoм прoфессиoнальнoм фoрмате.

Характеристики температуры и влажнoсти вoздуха измеряются на высoте 2 м в тени вдали oт зданий и деревьев.
Скoрoсть ветра измеряется на высoте 10 м (на урoвне рoста челoвека скoрoсть ветра ниже в 1.5-2 раза). Если метеoстанция нахoдится в гoрoде или в лесу, тo скoрoсть ветра занижена на 2-4 м/с пo сравнению с oткрытым местoм. Скoрoсть ветра над акватoриями крупных рек и oзёр, а также на вершинах хoлмoв на 2-5 м/с выше, чем в oбычных услoвиях.
Атмoсфернoе давление в разных тoчках местнoсти мoжет значительнo oтличаться oт давления на метеoстанции, в зависимoсти oт услoвий рельефа (при пoдъёме на 10 м давление пoнижается примернo на 1 мм рт.ст.).